CZ-6A DEB, 54412

Orbit data source: Space-Track

CZ-6A DEB, 54412 is space debris in SSO originally from a launch on Fri, 11 Nov 2022 UTC launched from the Taiyaun Space Center, China (TSC). Debris objects in space refer to the collection of defunct objects orbiting the Earth. Examples of debris include non-operational satellites, rocket bodies, and fragments generated from explosions, collisions, or faulty payload assembly.

Loading next visibility...
Identifier
54412, 2022-151EL
Orbit
SSO
Country
Flag of CNCN / PRC
Related business
Manufacturer
SAST
Mission
Spacecraft
Bus & Motor
Unknown
Mass
Unknown
Launch date (UTC)
2022-11-11 (4 years ago)
Launch vehicle
Unknown
Launch site
Taiyaun Space Center, China (TSC)
Object type
Payload
Rocket body
Debris
Shape & HBR
Unknown shape, 0.1 m
Radar Cross Section
Medium (>0.1 m² and <1 m²)

Expand to show TLE details & history
Last TLE update: 22 hours ago

TLE from 22 hours ago
0 CZ-6A DEB
1 54412U 22151EL  26235.56219620  .00010718  00000-0  10190-2 0  9996
2 54412  98.6428 350.5146 0086224 250.5886 108.5995 14.90867916202603
Epoch: 2026-08-23T13:29Z
TLE epoch observation values (Epoch: 2026-08-23T13:29:33.751Z)
Latitude
-0.0001°
Longitude
176.26752°
Altitude
617.886 km
Speed
7.539 km/s
True Right ascension
23h 22m 03s
True Declination
0° 00' 00"
Sunlit
Object was in full shadow at epoch
Visualization orbit readout
Latitude
Unknown
Longitude
Unknown
Altitude
Unknown
Speed
Unknown
Apparent Right ascension
Unknown
Apparent Declination
Unknown
Sunlit
N/A
Visualization observer readout
Local Sidereal Time
02:52:19
Azimuth
Unknown
Elevation
Unknown
Doppler factor
Unknown
Orbital elements
Apogee altitude
652.391 km
Perigee altitude
532.187 km
Semi-major axis
6,970.426 km
Eccentricity
0.00862
Inclination
98.6428°
RAAN
350.5146°
Arg. of periapsis
250.5886°
True anomaly
109.5327°
Mean anomaly
108.5995°
Eccentric anomaly
109.06643°
Mean motion
3.72953 °/min
Orbital period
96.53 mins
BSTAR
0.001019
Loading maneuver chart data...
Computing Atmospheric mass density...

Documentation

Showing up to 5 results
|